TimeMST,TemperatureF,Dew PointF,Humidity,Sea Level PressureIn,VisibilityMPH,Wind Direction,Wind SpeedMPH,Gust SpeedMPH,PrecipitationIn,Events,Conditions,WindDirDegrees,DateUTC
12:16 AM,33.8,30.2,87,29.68,2.5,SSE,5.8,-,0.02,Snow,Light Snow,160,2013-03-09 07:16:00
12:46 AM,33.8,30.2,87,29.68,0.8,South,8.1,-,0.04,Snow,Light Snow,170,2013-03-09 07:46:00
12:52 AM,33.1,30.9,92,29.66,0.5,South,9.2,-,0.04,Fog-Snow,Light Snow,170,2013-03-09 07:52:00
12:57 AM,33.8,30.2,87,29.69,1.2,South,8.1,-,0.01,Snow,Light Snow,180,2013-03-09 07:57:00
1:01 AM,33.8,30.2,87,29.69,1.5,South,6.9,-,0.01,Snow,Light Snow,170,2013-03-09 08:01:00
1:03 AM,33.8,30.2,87,29.69,1.2,SSE,5.8,-,0.02,Snow,Light Snow,160,2013-03-09 08:03:00
1:20 AM,33.8,30.2,87,29.69,0.8,SSE,8.1,-,0.05,Snow,Light Snow,160,2013-03-09 08:20:00
1:42 AM,33.8,30.2,87,29.70,0.8,South,10.4,-,0.10,Snow,Light Snow,170,2013-03-09 08:42:00
1:52 AM,33.1,30.9,92,29.68,0.8,South,9.2,-,0.12,Snow,Light Snow,170,2013-03-09 08:52:00
2:12 AM,33.8,30.2,87,29.70,0.8,SSE,9.2,-,0.05,Snow,Light Snow,150,2013-03-09 09:12:00
2:48 AM,33.8,30.2,87,29.70,1.0,SSW,9.2,-,0.11,Snow,Light Snow,210,2013-03-09 09:48:00
2:52 AM,33.1,30.9,92,29.69,1.5,SSW,10.4,-,0.12,Snow,Light Snow,210,2013-03-09 09:52:00
3:06 AM,33.8,30.2,87,29.70,1.2,SSW,5.8,-,0.02,Snow,Light Snow,200,2013-03-09 10:06:00
3:23 AM,33.8,30.2,87,29.70,0.8,Variable,3.5,-,0.04,Snow,Light Snow,0,2013-03-09 10:23:00
3:52 AM,32.0,30.9,96,29.71,0.8,SSE,6.9,-,0.10,Snow,Light Snow,160,2013-03-09 10:52:00
4:08 AM,32.0,30.2,93,29.71,1.0,South,8.1,-,0.03,Snow,Light Snow,170,2013-03-09 11:08:00
4:14 AM,32.0,30.2,93,29.72,0.5,South,8.1,-,0.04,Fog-Snow,Snow,170,2013-03-09 11:14:00
4:32 AM,32.0,30.2,93,29.73,0.8,South,5.8,-,0.06,Snow,Light Snow,170,2013-03-09 11:32:00
4:52 AM,32.0,30.9,96,29.73,0.5,Calm,Calm,-,0.10,Fog-Snow,Snow,0,2013-03-09 11:52:00
5:09 AM,32.0,30.2,93,29.74,0.5,Variable,4.6,-,0.05,Fog-Snow,Snow,0,2013-03-09 12:09:00
5:34 AM,32.0,30.2,93,29.75,0.8,North,10.4,-,0.11,Snow,Light Snow,360,2013-03-09 12:34:00
5:52 AM,32.0,30.9,96,29.77,0.8,North,9.2,-,0.14,Snow,Light Snow,360,2013-03-09 12:52:00
6:16 AM,32.0,30.2,93,29.78,0.8,North,11.5,-,0.05,Snow,Light Snow,350,2013-03-09 13:16:00
6:52 AM,32.0,30.9,96,29.80,0.8,North,8.1,-,0.15,Snow,Light Snow,350,2013-03-09 13:52:00
7:03 AM,32.0,30.2,93,29.80,0.5,North,9.2,-,0.03,Fog-Snow,Snow,350,2013-03-09 14:03:00
7:47 AM,32.0,30.2,93,29.82,0.2,North,11.5,-,0.10,Fog-Snow,Heavy Snow,10,2013-03-09 14:47:00
7:52 AM,32.0,30.9,96,29.83,0.2,North,12.7,-,0.11,Fog-Snow,Heavy Snow,10,2013-03-09 14:52:00
8:12 AM,32.0,30.2,93,29.83,0.8,North,11.5,-,0.02,Snow,Light Snow,10,2013-03-09 15:12:00
8:52 AM,32.0,30.9,96,29.88,0.2,NNE,10.4,-,0.07,Fog-Snow,Heavy Snow,20,2013-03-09 15:52:00
9:15 AM,32.0,30.2,93,29.88,0.5,NNE,10.4,-,0.02,Fog-Snow,Snow,20,2013-03-09 16:15:00
9:52 AM,32.0,30.9,96,29.91,0.2,NNE,9.2,-,0.07,Fog-Snow,Heavy Snow,30,2013-03-09 16:52:00
10:23 AM,33.8,32.0,93,29.92,0.5,NNE,6.9,-,0.04,Fog-Snow,Snow,20,2013-03-09 17:23:00
10:41 AM,33.8,32.0,93,29.93,0.5,North,8.1,-,0.05,Fog-Snow,Snow,10,2013-03-09 17:41:00
10:52 AM,33.1,32.0,96,29.95,0.5,North,8.1,-,0.06,Fog-Snow,Snow,10,2013-03-09 17:52:00
11:07 AM,33.8,32.0,93,29.94,0.5,NE,5.8,-,0.01,Fog-Snow,Snow,50,2013-03-09 18:07:00
11:15 AM,33.8,32.0,93,29.94,1.0,ENE,5.8,-,0.02,Snow,Light Snow,60,2013-03-09 18:15:00
11:24 AM,35.6,32.0,87,29.95,1.5,ENE,4.6,-,0.02,Snow,Light Snow,60,2013-03-09 18:24:00
11:28 AM,35.6,32.0,87,29.95,2.0,ENE,3.5,-,0.02,Snow,Light Snow,60,2013-03-09 18:28:00
11:39 AM,35.6,32.0,87,29.95,5.0,Calm,Calm,-,0.02,Snow,Light Snow,0,2013-03-09 18:39:00
11:52 AM,36.0,30.9,82,29.96,10.0,Calm,Calm,-,0.02,,Overcast,0,2013-03-09 18:52:00
12:52 PM,36.0,28.9,76,29.98,10.0,NNE,9.2,-,0.00,Rain,Light Rain,30,2013-03-09 19:52:00
1:52 PM,37.0,30.0,76,30.00,10.0,NE,9.2,-,0.00,,Overcast,40,2013-03-09 20:52:00
2:46 PM,37.4,28.4,70,30.00,1.8,North,4.6,-,N/A,,Haze,350,2013-03-09 21:46:00
2:52 PM,37.9,28.9,70,30.01,9.0,North,4.6,-,N/A,,Overcast,360,2013-03-09 21:52:00
3:10 PM,37.4,30.2,75,30.01,5.0,WNW,8.1,-,N/A,,Haze,300,2013-03-09 22:10:00
3:52 PM,39.0,28.9,67,30.03,10.0,North,4.6,-,N/A,,Overcast,350,2013-03-09 22:52:00
4:52 PM,39.0,27.0,62,30.04,10.0,North,13.8,-,0.00,,Scattered Clouds,10,2013-03-09 23:52:00
5:52 PM,39.0,28.0,65,30.07,10.0,North,10.4,-,N/A,,Mostly Cloudy,10,2013-03-10 00:52:00
6:52 PM,35.1,27.0,72,30.12,10.0,North,13.8,-,N/A,,Clear,360,2013-03-10 01:52:00
7:52 PM,34.0,26.1,73,30.16,10.0,NNE,8.1,-,N/A,,Clear,20,2013-03-10 02:52:00
8:52 PM,32.0,24.1,73,30.20,10.0,NNW,4.6,-,N/A,,Clear,340,2013-03-10 03:52:00
9:52 PM,28.0,23.0,81,30.24,10.0,North,8.1,-,N/A,,Clear,350,2013-03-10 04:52:00
10:52 PM,28.9,21.0,72,30.25,10.0,NNW,9.2,-,N/A,,Clear,340,2013-03-10 05:52:00
11:00 PM,-9999,-9999,N/A,-9999,-9999.0,North,-9999.0,-,N/A,,Unknown,0,2013-03-10 06:00:00
11:52 PM,28.0,19.0,69,30.25,10.0,NNW,9.2,-,N/A,,Clear,340,2013-03-10 06:52:00